Wind_Speed
6 6 6 7 8 7 2 0 3 3 4 5 6 7 8 8 8 9 10 10 10 11 11 11 10 11 10 11 11 11 12 12 12 12 12 12 12 12 12 12 11 11 11 11 11 11 11 11 11
6 6 6 7 7 4 2 2 3 5 6 6 7 7 9 9 11 11 11 11 12 12 12 12 11 12 12 12 12 12 12 13 13 13 13 12 13 13 13 13 12 12 12 12 12 12 13 12 13
6 6 6 7 4 2 3 6 6 6 7 8 9 8 8 10 12 13 13 14 14 14 13 13 13 13 13 13 13 13 13 13 14 14 13 13 13 14 14 14 13 13 13 14 14 14 14 13 13
7 7 7 5 1 4 7 9 8 7 8 9 10 10 9 11 12 13 14 15 16 15 15 15 14 14 14 14 14 14 14 14 14 15 15 14 15 15 15 15 14 15 15 15 15 15 15 15 15
7 7 5 1 4 8 10 10 10 9 9 9 10 11 10 12 14 15 16 16 16 17 16 15 15 15 15 15 15 15 16 15 16 16 16 15 16 16 16 16 15 15 16 16 16 16 16 16 16
6 5 1 3 7 10 12 12 11 11 11 11 11 13 13 13 14 15 17 17 17 18 18 16 16 16 16 16 16 17 17 17 17 17 16 16 16 16 16 16 16 16 16 17 17 18 18 18 17
6 5 3 4 8 11 13 13 13 12 13 13 13 14 16 15 15 17 18 19 18 18 18 18 17 17 17 17 17 18 19 18 17 17 17 17 18 17 17 17 17 17 17 17 18 18 19 18 18
6 3 3 4 9 12 12 13 14 15 15 15 14 15 17 17 18 18 19 19 19 19 19 19 19 19 18 18 18 19 19 18 18 18 18 18 19 19 18 18 19 19 18 18 18 18 19 19 19
4 4 4 6 10 11 13 12 14 15 16 16 16 17 17 18 19 19 19 19 19 19 20 20 21 21 20 20 20 20 20 19 19 19 19 19 19 20 19 19 20 20 20 19 19 19 19 20 20
4 7 8 10 10 10 12 13 14 15 17 17 16 16 17 19 20 20 20 19 20 20 21 21 21 21 21 21 22 21 21 21 21 21 20 21 21 21 21 21 21 21 21 20 20 20 20 20 21
7 10 9 9 9 10 10 12 14 15 16 18 17 18 18 19 20 20 20 19 20 21 21 22 22 22 22 23 23 23 23 23 22 22 22 22 23 23 23 22 22 22 22 22 22 21 22 21 22
10 11 10 9 10 10 10 12 15 17 17 17 18 19 19 20 21 22 21 21 22 22 22 23 24 24 25 25 24 25 25 25 23 23 24 24 23 24 24 24 23 23 23 23 22 22 21 22 22
8 10 11 10 10 11 12 13 15 16 16 17 20 20 20 21 22 23 23 22 23 23 23 24 24 24 26 26 25 27 26 26 25 25 25 25 25 24 25 25 25 25 24 24 23 22 22 22 22
9 10 10 11 11 12 13 13 16 16 17 18 20 22 22 22 23 23 24 24 24 24 24 25 25 26 26 26 26 27 26 26 27 26 26 27 27 26 26 26 25 25 26 25 23 23 23 23 23
8 9 9 10 11 13 15 15 17 18 19 21 22 23 23 23 24 24 24 25 25 25 26 26 27 26 26 25 26 27 26 27 27 27 27 27 27 27 27 26 26 26 26 25 24 24 23 23 23
7 9 10 10 12 14 16 17 19 20 21 21 22 23 24 25 25 25 25 26 26 26 27 27 27 27 27 27 26 27 27 27 27 28 27 26 27 28 27 27 25 25 25 25 24 24 23 23 23
6 8 8 11 13 14 16 18 21 22 21 22 23 24 24 25 26 26 26 26 27 27 27 27 28 28 28 28 28 28 27 28 27 27 27 27 26 26 26 25 24 24 25 25 24 23 23 23 23
8 9 10 11 13 16 18 18 21 22 23 25 24 24 25 25 26 26 27 27 28 28 28 28 28 29 29 29 29 29 29 28 27 27 26 26 26 26 24 24 24 24 24 24 24 24 23 23 23
11 11 11 13 15 18 19 19 20 23 24 24 24 25 26 26 26 26 27 27 28 28 29 29 29 30 30 30 30 30 29 28 27 26 25 26 26 26 25 25 24 24 24 24 24 24 24 24 24
11 11 12 15 17 18 19 19 21 22 25 27 27 27 27 27 27 27 27 27 28 28 29 29 29 29 30 31 31 31 30 28 27 26 26 25 25 25 25 26 25 24 23 23 24 24 24 25 24
11 12 13 17 18 17 18 20 21 23 25 26 26 27 28 28 28 28 28 28 28 29 29 29 29 30 31 31 31 30 29 28 28 27 27 26 25 26 26 26 24 22 22 22 24 24 24 25 25
12 13 14 17 17 16 16 18 21 25 25 26 26 26 27 28 29 30 30 29 29 29 29 29 29 30 31 31 30 30 29 28 28 27 26 26 26 26 26 25 24 23 22 22 23 24 24 25 26
13 12 13 15 16 16 15 16 21 25 25 26 28 27 28 29 31 32 31 31 30 29 30 30 29 29 30 30 30 30 29 28 27 26 26 26 25 26 25 24 23 23 23 23 23 24 25 25 25
14 13 11 14 15 16 17 18 21 25 26 28 28 29 30 31 32 32 32 31 31 30 30 30 30 30 30 30 29 29 28 27 26 25 25 25 25 25 24 24 24 24 24 24 24 24 24 24 25
14 13 13 14 15 17 19 21 23 25 26 27 29 31 31 32 32 32 32 30 31 31 31 30 30 30 30 29 28 28 28 27 26 25 25 24 24 24 24 24 24 23 23 23 23 23 23 24 24
15 15 15 17 17 19 19 19 21 24 27 28 30 31 31 32 32 33 33 32 31 31 31 30 29 29 28 28 28 28 28 26 25 24 24 23 23 23 22 23 22 22 22 22 22 23 23 23 24
15 14 15 16 17 18 18 21 23 24 27 29 31 31 31 32 33 34 33 32 31 31 31 30 29 28 27 27 26 26 25 24 24 23 23 23 23 22 22 22 22 22 21 21 22 23 23 23 24
15 15 15 15 17 18 19 19 24 26 27 30 32 33 32 33 33 33 33 33 31 31 30 29 28 27 27 26 25 24 23 23 23 23 22 22 22 22 21 21 21 21 21 20 21 22 22 23 23
15 15 16 16 17 19 20 21 24 26 30 31 32 33 33 34 35 33 32 32 31 30 29 28 28 27 25 24 23 23 22 22 23 23 22 21 21 21 20 20 20 21 20 20 21 22 22 21 21
16 16 16 18 18 18 20 22 25 28 29 30 31 32 33 33 33 32 31 30 29 29 29 28 27 27 25 24 23 22 22 22 22 22 21 21 20 20 20 20 20 20 20 21 21 22 21 21 21
Wind_Direction
109 103 105 107 95 89 47 29 283 298 297 302 317 322 325 324 322 323 326 328 328 328 325 324 323 319 319 318 313 309 305 302 299 299 301 300 299 298 296 293 289 285 280 278 277 278 275 272 271
109 113 110 101 88 71 356 280 284 305 302 309 313 318 321 321 322 321 325 330 329 326 325 325 322 319 320 320 315 311 307 303 300 299 300 300 298 296 294 292 289 286 282 279 278 277 275 272 270
117 118 101 80 68 17 285 279 282 295 305 307 311 317 323 321 320 322 324 323 323 325 327 323 322 319 319 318 314 310 307 304 302 300 299 299 298 296 296 293 290 287 284 281 280 278 277 274 271
129 121 98 80 14 274 271 278 288 296 304 300 306 313 316 313 317 321 323 324 323 323 324 319 318 318 315 311 308 306 304 303 301 299 298 298 298 297 295 294 291 289 286 282 280 278 276 274 273
144 120 93 97 265 262 273 281 293 294 298 298 305 306 310 309 314 320 322 321 322 322 321 316 315 313 312 308 306 304 302 303 303 301 299 297 296 296 295 294 293 291 288 283 279 278 278 276 276
150 118 109 239 259 265 282 290 291 295 299 299 305 303 303 309 313 317 317 318 321 320 319 314 312 311 310 309 307 304 302 302 301 301 300 298 295 294 294 294 293 292 290 287 281 278 278 276 276
169 158 205 254 266 260 275 287 293 297 302 304 304 302 305 310 312 313 313 314 317 317 316 314 312 310 308 308 307 303 304 301 298 298 298 297 296 294 291 292 293 291 289 288 285 281 279 278 276
167 165 200 261 265 261 274 284 289 295 301 303 300 299 303 308 310 310 310 311 313 315 314 313 311 308 306 305 304 302 303 302 299 297 296 295 293 292 290 291 291 290 289 288 286 284 281 278 277
183 206 235 253 258 266 276 282 287 294 297 299 300 301 304 308 309 310 308 309 311 311 311 312 310 306 304 303 303 302 300 300 298 297 296 296 295 292 290 290 290 290 288 288 286 284 283 280 277
215 247 248 255 265 268 277 279 284 289 296 301 304 303 305 308 310 309 307 310 311 310 310 310 309 307 305 303 302 301 299 297 298 297 296 296 295 292 290 288 289 289 288 288 288 286 284 280 278
252 259 257 263 273 277 279 280 285 290 290 293 302 306 310 310 310 309 310 311 309 309 309 308 306 307 304 302 301 301 299 297 296 296 294 295 294 292 289 288 289 289 288 288 287 288 286 283 280
271 273 283 285 281 287 286 289 288 289 291 297 304 304 306 308 309 309 309 309 308 309 307 305 304 304 302 299 301 300 299 299 298 297 295 294 293 291 289 287 288 288 288 288 284 286 285 286 282
277 284 286 293 295 294 292 296 292 291 297 301 303 308 308 308 311 309 310 309 309 309 309 307 304 303 304 301 301 300 297 296 295 295 294 294 293 291 291 289 287 287 288 288 284 284 284 284 282
286 296 301 306 303 298 298 301 295 296 300 302 305 308 310 310 311 311 311 311 310 311 310 308 307 307 306 303 300 301 299 296 293 292 293 292 292 292 290 290 289 287 287 287 287 283 281 283 283
308 319 317 310 293 291 300 306 299 298 303 304 306 308 310 311 311 312 311 311 311 311 310 309 308 307 306 305 305 302 300 297 295 293 291 292 292 290 292 292 289 289 286 285 287 284 281 280 281
339 329 321 308 295 298 300 303 300 300 301 301 303 307 310 311 311 311 310 310 310 310 309 308 307 307 306 304 303 302 298 296 295 293 292 292 293 291 291 290 288 287 287 287 287 284 281 282 280
327 304 299 291 291 295 296 298 301 306 307 305 304 307 309 310 310 311 309 308 308 309 308 308 307 306 305 304 302 301 299 297 295 294 292 292 292 291 289 289 288 288 287 288 288 286 282 282 281
291 288 278 278 282 287 292 296 303 306 309 309 307 310 310 310 309 309 309 310 309 308 308 308 307 305 305 305 303 302 301 298 292 293 295 294 292 292 290 288 288 288 286 286 288 287 284 283 282
289 285 289 289 286 285 292 299 301 302 308 313 311 311 311 309 311 312 312 312 310 308 308 308 306 305 306 304 304 303 299 297 295 294 297 295 292 293 293 289 289 287 285 285 286 286 286 285 285
288 292 288 283 290 293 297 304 306 302 306 312 313 312 313 314 314 313 312 312 311 310 310 308 306 305 306 305 304 303 300 297 296 297 297 298 296 295 293 290 287 286 284 283 284 286 287 286 285
287 291 285 286 290 296 298 304 304 303 305 308 312 313 311 312 313 314 313 312 311 311 311 309 307 307 306 306 305 303 299 296 295 294 295 297 297 293 290 290 286 287 285 285 284 286 288 287 285
291 290 287 293 294 296 299 298 301 300 302 305 310 311 311 313 315 316 313 312 311 310 311 310 309 308 307 306 306 304 302 298 294 294 294 295 295 293 290 289 285 286 288 286 285 286 287 290 287
292 290 291 295 297 299 298 293 291 296 301 306 312 314 314 316 317 316 314 313 311 311 311 311 310 308 307 306 306 304 302 299 295 293 293 293 293 293 292 289 286 286 286 286 286 287 289 290 289
292 295 296 295 294 287 286 287 288 294 301 307 310 311 314 316 316 316 315 313 313 312 312 311 310 308 307 306 305 303 301 298 295 293 293 292 292 291 291 289 288 288 290 290 289 288 289 290 289
298 301 298 291 290 291 292 293 292 296 300 304 306 308 312 315 316 316 315 313 313 312 312 312 312 311 308 305 304 303 301 299 296 294 293 293 292 291 290 288 289 290 290 289 289 289 290 289 289
298 299 298 300 299 303 305 300 292 297 302 307 309 311 311 314 314 314 312 312 312 312 313 313 313 312 310 307 305 303 300 299 298 296 294 294 295 294 291 290 291 292 291 288 289 292 293 291 290
297 299 300 303 303 303 303 303 301 301 305 309 310 310 312 314 315 315 314 314 313 313 313 313 312 311 310 308 307 305 302 300 298 296 294 293 293 295 294 292 292 293 291 289 290 291 293 294 293
301 305 307 304 304 305 306 303 299 303 306 310 312 314 316 315 316 317 316 316 314 314 314 314 314 312 310 308 306 306 305 302 300 296 295 295 293 295 296 293 292 292 291 290 292 295 295 295 295
298 300 304 305 303 302 304 304 299 302 307 309 312 314 315 316 317 318 317 316 315 315 315 315 315 313 311 309 308 306 305 304 303 298 295 294 293 295 295 294 293 292 291 292 294 295 297 296 295
301 304 304 303 304 305 306 308 306 305 308 312 315 316 317 319 319 318 317 317 316 318 317 317 316 315 312 309 307 308 308 306 305 301 297 295 294 294 295 296 294 293 292 293 293 294 295 296 296
Height
5892 5893 5894 5895 5896 5897 5897 5898 5897 5895 5895 5894 5893 5892 5891 5890 5889 5890 5887 5885 5884 5883 5882 5881 5880 5879 5878 5877 5876 5874 5874 5873 5872 5871 5870 5869 5868 5867 5866 5865 5865 5864 5864 5863 5863 5863 5862 5862 5862
5892 5893 5895 5895 5896 5898 5899 5897 5896 5896 5894 5893 5892 5892 5891 5889 5888 5887 5885 5883 5883 5882 5881 5880 5878 5877 5876 5875 5874 5873 5872 5871 5870 5869 5868 5867 5866 5865 5864 5863 5863 5862 5861 5861 5861 5860 5860 5860 5860
5892 5893 5895 5895 5898 5899 5899 5896 5895 5894 5894 5892 5891 5891 5890 5888 5887 5885 5884 5882 5881 5880 5880 5878 5877 5875 5874 5873 5872 5871 5870 5868 5867 5866 5865 5864 5864 5863 5862 5861 5860 5859 5859 5859 5858 5858 5857 5857 5857
5893 5894 5895 5898 5898 5899 5897 5896 5895 5894 5893 5892 5890 5889 5888 5887 5886 5884 5883 5881 5880 5878 5878 5876 5875 5873 5872 5871 5869 5868 5867 5866 5865 5864 5863 5862 5861 5860 5859 5858 5857 5857 5856 5855 5855 5855 5854 5854 5854
5892 5893 5895 5897 5898 5897 5896 5895 5893 5892 5891 5890 5889 5888 5886 5885 5884 5883 5881 5880 5878 5876 5875 5874 5872 5871 5870 5868 5867 5866 5864 5863 5862 5861 5860 5859 5858 5857 5856 5855 5854 5853 5853 5852 5852 5851 5851 5851 5851
5891 5892 5896 5897 5898 5897 5895 5893 5892 5892 5890 5888 5888 5886 5884 5883 5882 5881 5879 5878 5876 5874 5872 5872 5870 5868 5867 5866 5864 5862 5861 5860 5859 5858 5857 5856 5854 5853 5853 5852 5851 5850 5849 5849 5848 5847 5847 5847 5847
5891 5892 5895 5897 5897 5896 5895 5893 5892 5890 5888 5887 5886 5885 5882 5881 5880 5879 5877 5875 5874 5871 5869 5869 5867 5866 5864 5863 5861 5860 5858 5857 5856 5855 5854 5852 5851 5850 5849 5848 5848 5847 5846 5845 5844 5844 5843 5843 5843
5890 5892 5894 5896 5896 5894 5893 5891 5890 5888 5887 5886 5884 5883 5881 5879 5878 5876 5874 5872 5871 5869 5866 5865 5864 5862 5861 5859 5858 5857 5856 5854 5853 5852 5850 5849 5847 5846 5845 5845 5844 5843 5842 5841 5840 5840 5839 5839 5839
5890 5892 5892 5894 5893 5892 5890 5889 5888 5887 5885 5883 5881 5880 5878 5877 5875 5873 5871 5870 5868 5866 5864 5863 5861 5859 5857 5856 5854 5853 5852 5851 5850 5848 5846 5845 5844 5843 5842 5841 5840 5839 5838 5837 5836 5836 5835 5835 5834
5890 5891 5892 5891 5891 5890 5889 5887 5886 5885 5883 5881 5878 5877 5876 5875 5873 5870 5869 5867 5865 5863 5861 5858 5857 5855 5853 5852 5851 5849 5848 5847 5845 5844 5842 5841 5840 5839 5838 5837 5836 5835 5834 5833 5832 5831 5830 5830 5830
5889 5890 5890 5889 5888 5886 5886 5885 5884 5882 5881 5879 5876 5874 5873 5872 5870 5867 5866 5864 5862 5860 5858 5855 5852 5850 5850 5848 5846 5845 5844 5842 5841 5839 5838 5836 5835 5834 5833 5832 5831 5830 5829 5828 5828 5827 5826 5825 5825
5888 5888 5887 5886 5885 5884 5884 5884 5882 5880 5878 5876 5874 5872 5871 5869 5867 5864 5862 5861 5859 5857 5854 5852 5850 5847 5845 5843 5842 5840 5839 5837 5836 5834 5833 5831 5830 5829 5828 5827 5826 5825 5824 5824 5823 5822 5821 5820 5820
5887 5887 5886 5885 5884 5883 5882 5881 5879 5877 5874 5873 5871 5869 5868 5866 5864 5862 5858 5856 5854 5853 5850 5848 5846 5843 5840 5837 5836 5835 5833 5831 5830 5829 5827 5826 5825 5823 5822 5822 5821 5820 5819 5818 5817 5817 5816 5815 5815
5886 5885 5884 5882 5882 5881 5880 5879 5876 5872 5872 5870 5868 5866 5864 5862 5860 5858 5855 5853 5851 5848 5846 5844 5841 5838 5835 5832 5831 5829 5826 5825 5824 5823 5822 5820 5819 5818 5817 5816 5814 5814 5813 5813 5812 5811 5810 5809 5809
5883 5883 5882 5881 5881 5880 5879 5877 5873 5870 5869 5867 5865 5863 5860 5858 5856 5854 5852 5849 5846 5844 5842 5839 5836 5833 5830 5827 5824 5823 5821 5819 5818 5817 5815 5814 5812 5811 5810 5809 5809 5808 5807 5807 5806 5805 5804 5804 5804
5882 5882 5882 5881 5879 5878 5878 5876 5871 5869 5868 5865 5863 5860 5857 5855 5852 5849 5847 5845 5842 5839 5837 5834 5831 5828 5825 5823 5820 5818 5816 5813 5812 5810 5808 5807 5806 5804 5803 5802 5802 5801 5801 5800 5800 5799 5799 5798 5798
5883 5883 5882 5882 5880 5878 5877 5874 5869 5866 5864 5861 5859 5857 5854 5851 5849 5846 5843 5840 5837 5834 5831 5828 5826 5823 5820 5817 5814 5812 5810 5808 5806 5804 5802 5801 5800 5798 5797 5796 5796 5795 5795 5794 5794 5793 5793 5792 5792
5881 5881 5881 5881 5879 5876 5874 5873 5868 5863 5861 5859 5856 5853 5851 5848 5845 5842 5839 5836 5832 5829 5826 5823 5820 5817 5814 5811 5809 5806 5804 5802 5799 5798 5796 5795 5794 5792 5791 5790 5790 5789 5789 5788 5788 5787 5787 5786 5786
5879 5879 5878 5877 5876 5874 5871 5870 5867 5862 5858 5855 5852 5849 5847 5844 5840 5837 5834 5831 5828 5824 5821 5818 5814 5811 5808 5805 5802 5800 5798 5795 5793 5792 5791 5789 5788 5786 5785 5785 5784 5783 5783 5782 5782 5781 5780 5780 5779
5877 5877 5876 5875 5873 5870 5868 5866 5864 5860 5855 5852 5849 5846 5842 5839 5836 5833 5829 5826 5823 5819 5816 5812 5809 5806 5802 5799 5796 5793 5790 5789 5787 5786 5785 5783 5782 5781 5780 5779 5778 5777 5777 5776 5776 5775 5774 5774 5773
5875 5874 5873 5871 5869 5868 5865 5863 5860 5856 5853 5849 5846 5842 5838 5835 5832 5828 5825 5821 5818 5814 5811 5807 5804 5800 5797 5793 5790 5787 5784 5783 5781 5780 5779 5777 5776 5775 5774 5773 5771 5770 5770 5770 5770 5769 5768 5768 5767
5871 5871 5869 5868 5866 5865 5864 5860 5856 5851 5849 5846 5843 5838 5834 5831 5827 5824 5820 5816 5812 5809 5806 5802 5798 5795 5791 5787 5784 5781 5778 5776 5775 5773 5772 5771 5770 5769 5767 5766 5765 5764 5764 5764 5764 5763 5762 5761 5760
5868 5867 5866 5864 5863 5861 5860 5858 5854 5848 5844 5842 5839 5835 5830 5826 5823 5819 5815 5811 5806 5803 5800 5796 5792 5789 5785 5781 5778 5775 5772 5770 5768 5767 5766 5764 5763 5762 5761 5760 5759 5758 5758 5758 5757 5756 5755 5754 5753
5865 5863 5862 5861 5860 5859 5857 5855 5850 5845 5842 5839 5835 5831 5826 5822 5818 5814 5809 5805 5801 5798 5794 5791 5787 5783 5779 5775 5772 5769 5766 5763 5762 5760 5759 5758 5757 5756 5755 5753 5753 5752 5752 5751 5750 5749 5748 5747 5746
5862 5861 5859 5858 5858 5856 5854 5851 5847 5842 5840 5836 5832 5827 5823 5818 5813 5809 5804 5800 5795 5792 5788 5784 5781 5777 5773 5769 5766 5763 5760 5757 5755 5754 5753 5751 5750 5749 5748 5747 5746 5746 5745 5745 5744 5743 5742 5741 5740
5860 5859 5857 5855 5853 5852 5849 5847 5842 5839 5835 5832 5827 5823 5818 5813 5808 5803 5798 5793 5790 5786 5782 5778 5774 5771 5766 5763 5760 5756 5753 5751 5749 5747 5746 5745 5744 5743 5742 5741 5740 5739 5739 5738 5738 5737 5736 5735 5734
5857 5855 5854 5852 5850 5849 5846 5843 5837 5835 5832 5827 5823 5817 5813 5808 5803 5798 5792 5787 5784 5779 5775 5771 5768 5764 5760 5757 5753 5750 5747 5745 5742 5741 5740 5739 5738 5737 5736 5735 5735 5734 5733 5733 5732 5731 5729 5728 5727
5853 5852 5850 5848 5846 5844 5843 5840 5835 5829 5826 5821 5817 5811 5807 5802 5797 5792 5786 5781 5777 5773 5769 5765 5761 5757 5754 5751 5747 5744 5741 5739 5737 5735 5734 5733 5732 5731 5731 5730 5729 5728 5728 5727 5726 5724 5723 5722 5720
5851 5849 5846 5844 5842 5840 5837 5837 5831 5826 5822 5817 5812 5807 5801 5797 5791 5785 5780 5775 5771 5767 5762 5758 5755 5751 5748 5745 5742 5739 5736 5734 5731 5729 5729 5728 5727 5726 5726 5725 5724 5723 5722 5721 5720 5718 5717 5716 5714
5847 5846 5843 5841 5838 5836 5833 5833 5826 5821 5817 5813 5808 5802 5797 5791 5786 5780 5775 5770 5765 5761 5757 5753 5749 5746 5742 5739 5736 5733 5730 5728 5726 5724 5723 5722 5722 5721 5720 5719 5718 5717 5716 5715 5714 5713 5712 5710 5708